Weather reports worldwide

Advertisment
Aviemore, United Kingdom (3063): temperature & dewpoint: 16.08.2019 19:00:00 - 22.08.2019 19:00:00 (BST)Aviemore, United Kingdom (3063): temperature -20cm & temperature -100cm: 16.08.2019 19:00:00 - 22.08.2019 19:00:00 (BST)Aviemore, United Kingdom (3063): wind speed & gusts: 16.08.2019 19:00:00 - 22.08.2019 19:00:00 (BST)Aviemore, United Kingdom (3063): wind direction: 16.08.2019 19:00:00 - 22.08.2019 19:00:00 (BST)Aviemore, United Kingdom (3063): reduced air pressure: 16.08.2019 19:00:00 - 22.08.2019 19:00:00 (BST)Aviemore, United Kingdom (3063): visibility: 16.08.2019 19:00:00 - 22.08.2019 19:00:00 (BST)Aviemore, United Kingdom (3063): sunshine duration: 16.08.2019 19:00:00 - 22.08.2019 19:00:00 (BST)Aviemore, United Kingdom (3063): precipitation: 16.08.2019 19:00:00 - 22.08.2019 19:00:00 (BST)
Date & Time tt [°C] td [°C] tt -20cm [°C] tt -100cm [°C] ff [km/h] ff [kn] fx [km/h] fx [kn] dd ppp [hPa] vv [km] sd [min] rr [mm]
22.08.2019 19:00:00 15,5 8,7 - - 13 7 - - SW 1009,4 29 12 0,0
22.08.2019 18:00:00 16,3 9,2 - - 15 8 50 27 SW 1008,6 35 36 0,0
22.08.2019 17:00:00 16,6 11,8 - - 15 8 - - SSW 1008,1 45 18 0,0
22.08.2019 16:00:00 17,0 11,9 - - 11 6 - - SW 1008,2 22 0 0,0
22.08.2019 15:00:00 15,7 10,3 - - 16 9 48 26 SSW 1008,6 21 30 0,0
22.08.2019 14:00:00 16,3 9,6 - - 16 9 48 26 SW 1009,2 40 24 0,0
22.08.2019 13:00:00 17,6 9,1 - - 21 11 52 28 SSW 1009,0 28 60 0,0
22.08.2019 12:00:00 15,7 8,3 - - 16 9 46 25 SW 1009,6 35 30 0,0
22.08.2019 11:00:00 13,2 9,4 - - 9 5 - - SSW 1010,3 9 6 0,0
22.08.2019 10:00:00 13,3 11,1 15,5 15,0 8 4 - - SSW 1010,9 50 12 0,2
22.08.2019 09:00:00 12,3 9,0 - - 8 4 - - SW 1011,1 12 6 0,0
22.08.2019 08:00:00 10,5 8,7 - - 8 4 - - SW 1011,4 30 0 0,0
22.08.2019 07:00:00 9,9 8,8 - - 5 3 - - SSW 1011,7 25 0 0,0
22.08.2019 06:00:00 10,0 8,9 - - 5 3 - - SSW 1011,8 17 0 0,4
22.08.2019 05:00:00 10,0 7,9 - - 5 3 - - SW 1011,9 8 0 0,0
22.08.2019 04:00:00 9,7 7,5 - - 9 5 - - SW 1012,2 24 0 0,0
22.08.2019 03:00:00 10,1 7,2 - - 8 4 - - SW 1012,5 29 0 0,0
22.08.2019 02:00:00 9,3 6,9 - - 5 3 - - SW 1012,7 28 0 0,0
22.08.2019 01:00:00 8,3 7,0 - - 4 2 - - SSW 1013,1 29 - 0,0
22.08.2019 00:00:00 8,9 7,3 - - 4 2 - - SW 1013,0 40 0 0,0
21.08.2019 23:00:00 9,4 7,0 - - 4 2 - - SW 1013,0 40 0 0,0
21.08.2019 22:00:00 12,0 10,7 - - 4 2 - - WSW 1012,3 50 0 0,0
21.08.2019 21:00:00 12,3 11,0 - - 11 6 - - SW 1011,6 5 0 1,0
21.08.2019 20:00:00 13,0 10,3 - - 9 5 - - SW 1011,0 12 0 0,0
21.08.2019 19:00:00 13,7 10,4 - - 11 6 - - SW 1011,6 40 6 0,0
21.08.2019 18:00:00 14,5 10,1 - - 18 10 - - SSW 1011,6 20 0 0,0
21.08.2019 17:00:00 12,9 10,0 - - 13 7 46 25 SSW 1013,1 14 0 0,4
21.08.2019 16:00:00 15,1 8,9 - - 15 8 - - SSW 1013,7 35 0 0,0
21.08.2019 15:00:00 15,3 9,2 - - 11 6 - - SSW 1014,1 45 0 0,0
21.08.2019 14:00:00 15,7 9,2 - - 15 8 50 27 SSW 1014,7 45 0 0,0
21.08.2019 13:00:00 16,1 10,6 - - 13 7 - - SSW 1015,6 40 0 0,0
21.08.2019 12:00:00 15,5 10,1 - - 13 7 - - SSW 1016,1 45 6 0,0
21.08.2019 11:00:00 16,2 9,9 - - 11 6 - - SSW 1016,6 40 48 0,0
21.08.2019 10:00:00 14,1 10,1 15,9 15,2 9 5 - - SSW 1017,5 35 36 0,0
21.08.2019 09:00:00 12,9 10,3 - - 9 5 - - SW 1017,9 30 6 0,0
21.08.2019 08:00:00 11,5 10,5 - - 8 4 - - SW 1018,6 45 6 0,0
21.08.2019 07:00:00 7,5 7,4 - - 4 2 - - NE 1019,2 13 0 0,0
21.08.2019 06:00:00 5,9 5,6 - - 4 2 - - NE 1019,4 9 0 0,0
21.08.2019 05:00:00 6,3 6,1 - - 0 0 - - N 1019,7 21 0 0,0
21.08.2019 04:00:00 6,1 5,9 - - 2 1 - - NNE 1019,9 18 0 0,0
21.08.2019 03:00:00 5,6 5,4 - - 4 2 - - N 1020,4 14 0 0,0
21.08.2019 02:00:00 5,8 5,5 - - 2 1 - - WSW 1020,7 14 0 0,0
21.08.2019 01:00:00 6,5 6,4 - - 2 1 - - SSW 1020,8 11 - 0,0
21.08.2019 00:00:00 6,2 5,8 - - 2 1 - - WNW 1020,8 4,8 0 0,0
20.08.2019 23:00:00 7,4 7,0 - - 2 1 - - W 1020,7 0,4 0 0,0
20.08.2019 22:00:00 9,1 8,6 - - 5 3 - - WNW 1020,4 14 0 0,0
20.08.2019 21:00:00 10,9 10,3 - - 4 2 - - WNW 1020,0 19 0 0,0
20.08.2019 20:00:00 11,8 10,4 - - 4 2 - - WSW 1019,6 35 0 0,4
20.08.2019 19:00:00 12,6 9,8 - - 2 1 - - SSE 1019,3 5 0 0,2
20.08.2019 18:00:00 14,3 9,8 - - 8 4 - - NE 1018,5 40 36 0,2
20.08.2019 17:00:00 14,0 10,9 - - 2 1 - - SSW 1018,3 7 6 0,6
20.08.2019 16:00:00 15,4 8,8 - - 4 2 - - SSW 1017,7 35 0 0,0
20.08.2019 15:00:00 15,2 7,7 - - 8 4 - - SSW 1017,4 45 0 0,0
20.08.2019 14:00:00 15,6 5,5 - - 5 3 - - W 1016,9 50 18 0,0
20.08.2019 13:00:00 16,0 5,6 - - 5 3 - - WNW 1016,6 27 30 0,0
20.08.2019 12:00:00 14,9 6,1 - - 5 3 - - W 1016,3 30 18 0,0
20.08.2019 11:00:00 13,3 7,7 - - 4 2 - - NNW 1016,2 30 18 0,0
20.08.2019 10:00:00 12,6 7,0 16,0 15,2 5 3 - - WSW 1015,8 30 12 0,0
20.08.2019 09:00:00 10,9 10,0 - - 4 2 - - S 1015,5 24 12 0,0
20.08.2019 08:00:00 9,4 9,2 - - 0 0 - - N 1015,2 25 0 0,0
20.08.2019 07:00:00 8,5 8,2 - - 2 1 - - NW 1014,6 26 0 0,0
20.08.2019 06:00:00 8,8 8,4 - - 2 1 - - NW 1013,8 7 0 0,0
20.08.2019 05:00:00 9,3 8,5 - - 2 1 - - N 1013,2 35 0 0,2
20.08.2019 04:00:00 9,6 8,9 - - 0 0 - - N 1012,7 3,9 0 0,2
20.08.2019 03:00:00 9,6 9,3 - - 2 1 - - N 1012,1 35 0 0,2
20.08.2019 02:00:00 9,3 9,0 - - 4 2 - - W 1011,5 35 0 0,0
20.08.2019 01:00:00 10,0 9,1 - - 4 2 - - W 1011,2 9 - 0,0
20.08.2019 00:00:00 9,9 9,1 - - 2 1 - - NW 1010,7 7 0 0,0
19.08.2019 23:00:00 9,7 9,1 - - 2 1 - - W 1009,8 40 0 0,0
19.08.2019 22:00:00 10,6 9,4 - - 4 2 - - W 1008,8 45 0 0,0
19.08.2019 21:00:00 11,4 10,5 - - 2 1 - - W 1008,1 45 0 0,0
19.08.2019 20:00:00 11,9 11,2 - - 4 2 - - SSW 1007,2 40 0 0,0
19.08.2019 19:00:00 12,0 11,0 - - 4 2 - - SSW 1006,5 22 0 0,8
19.08.2019 18:00:00 12,3 10,8 - - 8 4 - - SW 1005,7 16 0 1,2
19.08.2019 17:00:00 13,5 10,2 - - 11 6 - - SW 1005,1 11 0 0,2
19.08.2019 16:00:00 16,8 9,9 - - 11 6 - - SSW 1004,2 28 48 0,0
19.08.2019 15:00:00 16,7 9,3 - - 11 6 - - SSW 1003,8 30 36 0,0
19.08.2019 14:00:00 15,0 10,3 - - 11 6 - - SW 1003,6 45 18 0,0
19.08.2019 13:00:00 15,0 8,7 - - 11 6 - - SSW 1002,8 35 30 0,0
19.08.2019 12:00:00 15,4 10,5 - - 13 7 - - SSW - 30 30 0,0
19.08.2019 11:00:00 15,2 10,2 - - 11 6 - - SSW - 45 42 0,0
19.08.2019 10:00:00 12,9 10,4 16,0 15,2 13 7 - - SSW - 12 24 0,0
19.08.2019 09:00:00 12,2 10,9 - - 8 4 - - SSW - 30 6 0,0
19.08.2019 08:00:00 11,9 9,9 - - 5 3 - - SSW - 17 0 0,0
19.08.2019 07:00:00 11,1 9,2 - - 8 4 - - SSW - 28 0 0,0
19.08.2019 06:00:00 10,7 8,7 - - 8 4 - - SSW - 26 0 0,0
19.08.2019 05:00:00 10,5 8,3 - - 9 5 - - SW - 26 0 0,0
19.08.2019 04:00:00 10,8 8,1 - - 8 4 - - SSW - 22 0 0,0
19.08.2019 03:00:00 10,7 8,1 - - 8 4 - - SSW - 22 0 0,0
19.08.2019 02:00:00 10,4 8,5 - - 5 3 - - SW - 18 0 0,0
19.08.2019 01:00:00 10,1 8,3 - - 5 3 - - SW 1011,2 17 - 0,0
19.08.2019 00:00:00 11,1 8,6 - - 8 4 - - SSW - 18 0 0,0
18.08.2019 23:00:00 11,4 9,4 - - 4 2 - - SW - 22 0 0,0
18.08.2019 22:00:00 11,7 9,5 - - 5 3 - - SSW - 25 0 0,0
18.08.2019 21:00:00 12,2 8,6 - - 9 5 - - SW - 30 0 0,0
18.08.2019 20:00:00 12,9 9,0 - - 8 4 - - SW - 28 6 0,0
18.08.2019 19:00:00 13,5 9,5 - - 11 6 - - SW - 30 24 0,0
18.08.2019 18:00:00 14,8 11,8 - - 8 4 - - SW - 30 6 0,4
18.08.2019 17:00:00 13,5 11,6 - - 8 4 - - SW - 12 18 0,0
18.08.2019 16:00:00 14,9 11,7 - - 11 6 - - SSW - 30 6 0,0
18.08.2019 15:00:00 15,5 12,4 - - 11 6 - - SSW - 35 24 0,0
18.08.2019 14:00:00 14,7 12,0 - - 11 6 - - SSW - 29 12 0,4
18.08.2019 13:00:00 14,1 12,2 - - 11 6 - - SW - 21 36 0,6
18.08.2019 12:00:00 - - - - - - - - - - - - 0,4
18.08.2019 11:00:00 - - - - - - - - - - - - 4,4
18.08.2019 10:00:00 - - - - - - - - - - - - 0,0
18.08.2019 09:00:00 - - - - - - - - - - - - 0,0
18.08.2019 08:00:00 - - - - - - - - - - - - -
18.08.2019 07:00:00 - - - - - - - - - - - - 0,4
18.08.2019 06:00:00 - - - - - - - - - - - - 1,2
18.08.2019 05:00:00 - - - - - - - - - - - - 1,8
18.08.2019 04:00:00 - - - - - - - - - - - - 0,2
18.08.2019 03:00:00 - - - - - - - - - - - - 0,4
18.08.2019 02:00:00 - - - - - - - - - - - - 0,0
18.08.2019 01:00:00 - - - - - - - - - - - - 0,0
18.08.2019 00:00:00 - - - - - - - - - - - - 0,0
17.08.2019 23:00:00 - - - - - - - - - - - - 0,0
17.08.2019 22:00:00 - - - - - - - - - - - - 0,0
17.08.2019 21:00:00 - - - - - - - - - - - - 0,0
17.08.2019 20:00:00 - - - - - - - - - - - - 0,0
17.08.2019 19:00:00 - - - - - - - - - - - - 0,0
17.08.2019 18:00:00 - - - - - - - - - - - - -
17.08.2019 17:00:00 - - - - - - - - - - - - 0,0
17.08.2019 16:00:00 - - - - - - - - - - - - 0,0
17.08.2019 15:00:00 - - - - - - - - - - - - -
17.08.2019 14:00:00 - - - - - - - - - - - - -
17.08.2019 13:00:00 - - - - - - - - - - - - -
17.08.2019 12:00:00 - - - - - - - - - - - - -
17.08.2019 11:00:00 - - - - - - - - - - - - -
17.08.2019 10:00:00 - - - - - - - - - - - - -
17.08.2019 09:00:00 - - - - - - - - - - - - 0,0
17.08.2019 08:00:00 - - - - - - - - - - - - -
17.08.2019 07:00:00 - - - - - - - - - - - - 0,0
17.08.2019 06:00:00 - - - - - - - - - - - - -
17.08.2019 05:00:00 11,9 10,3 - - 9 5 - - SW - 40 0 0,0
17.08.2019 04:00:00 12,0 10,9 - - 5 3 - - SW - 50 0 0,2
17.08.2019 03:00:00 9,7 9,5 - - 2 1 - - SSE - 4,2 0 0,0
17.08.2019 02:00:00 9,8 9,4 - - 4 2 - - N - 9 0 0,0
17.08.2019 01:00:00 10,8 10,6 - - 4 2 - - SE 990,9 1,6 - 0,0
17.08.2019 00:00:00 11,3 10,8 - - 2 1 - - WNW 991,6 13 0 0,0
16.08.2019 23:00:00 12,5 11,9 - - 2 1 - - SSE 992,1 10 0 0,2
16.08.2019 22:00:00 13,0 12,1 - - 4 2 - - SW 992,0 6 0 0,8
16.08.2019 21:00:00 13,2 12,1 - - 2 1 - - WNW 992,0 17 0 0,0
16.08.2019 20:00:00 14,9 12,7 - - 2 1 - - SSW 991,9 22 0 0,2
16.08.2019 19:00:00 16,2 11,8 - - 4 2 - - WSW 992,1 29 12 0,0

tt = temperature
td = dewpoint
tt -20cm = temperature -20cm
tt -100cm = temperature -100cm
ff = wind speed
fx = gusts
dd = wind direction
ppp = reduced air pressure
vv = visibility
sd = sunshine duration
rr = precipitation

Next stations